This is the latest recevied weather packets stored in our database for station/object WX5RP. If no packets are shown the sender has not sent any weather packets the latest 10 day(s).
| Time | Temp. | Humidity | Pressure | Rain* | Wind** | Luminosity | Snow |
|---|---|---|---|---|---|---|---|
| 1787628615 | 22.78° C | 22% | 1018.3 hPa | 0 mm | - | 0 W/m² | - |
| 1787628016 | 21.67° C | 23% | 1018.2 hPa | 0 mm | - | 0 W/m² | - |
| 1787627416 | 21.67° C | 30% | 1018.5 hPa | 0 mm | - | 0 W/m² | - |
| 1787626816 | 22.22° C | 26% | 1018.1 hPa | 0 mm | - | 0 W/m² | - |
| 1787626215 | 23.33° C | 26% | 1017.6 hPa | 0 mm | - | 7 W/m² | - |
| 1787625616 | 23.33° C | 25% | 1017 hPa | 0 mm | - | 13 W/m² | - |
| 1787625015 | 24.44° C | 24% | 1017 hPa | 0 mm | - | 17 W/m² | - |
| 1787624415 | 25.56° C | 24% | 1016.6 hPa | 0 mm | - | 24 W/m² | - |
| 1787623815 | 24.44° C | 24% | 1017.9 hPa | 0 mm | - | 28 W/m² | - |
| 1787623216 | 24.44° C | 31% | 1018.1 hPa | 0 mm | - | 33 W/m² | - |
| 1787622616 | 25° C | 33% | 1017.7 hPa | 0 mm | - | 37 W/m² | - |
| 1787622016 | 26.11° C | 32% | 1017.8 hPa | 0 mm | - | 83 W/m² | - |
| 1787621416 | 27.22° C | 27% | 1018 hPa | 0 mm | - | 82 W/m² | - |
| 1787620816 | 27.22° C | 25% | 1018 hPa | 0 mm | - | 157 W/m² | - |
| 1787620216 | 27.22° C | 27% | 1017.8 hPa | 0 mm | - | 156 W/m² | - |
| 1787619616 | 27.78° C | 22% | 1018 hPa | 0 mm | - | 172 W/m² | - |
| 1787619016 | 27.22° C | 25% | 1017.9 hPa | 0 mm | - | 185 W/m² | - |
| 1787618416 | 27.22° C | 25% | 1017.5 hPa | 0 mm | - | 139 W/m² | - |
| 1787617816 | 28.33° C | 21% | 1018 hPa | 0 mm | - | 215 W/m² | - |
| 1787617216 | 28.33° C | 24% | 1018.2 hPa | 0 mm | - | 438 W/m² | - |
| 1787616616 | 27.78° C | 22% | 1017.3 hPa | 0 mm | - | 357 W/m² | - |
| 1787616016 | 28.89° C | 22% | 1017.9 hPa | 0 mm | - | 289 W/m² | - |
| 1787615416 | 29.44° C | 19% | 1018 hPa | 0 mm | - | 528 W/m² | - |
| 1787614816 | 30° C | 27% | 1017.6 hPa | 0 mm | - | 567 W/m² | - |
| 1787614216 | 30.56° C | 21% | 1017.7 hPa | 0 mm | - | 622 W/m² | - |
* Rain latest hour (hover to see other rain measurements)
** Current wind speed in m/s (hover to see current wind gust speed)